This demonstration page uses our WeatherBlox Daily Observations layout. Learn more.

38.88101, -77.10428

Hourly Observations for January 18, 2017

Temp ( °F °C ) Dew Point ( °F °C ) Humidity (%) Winds ( mph kmh ) Pressure ( in mb ) Visibility ( mi km ) Precip ( " mm )
12:01 am 00:01 Partly Cloudy with Fog 47 8.3 47 8.3 100 100 Calm 29.88 1012 0.25 0.402335 0 0
12:09 am 00:09 Cloudy with Fog 46 7.8 46 7.8 100 100 N 5 7 29.88 1012 0.25 0.402335 0 0
12:24 am 00:24 Mostly Cloudy with Fog 46 8 46 8 100 100 N 7 11 29.88 1012 0.25 0.402335 0 0
12:37 am 00:37 Mostly Cloudy with Fog 45 7.2 45 7.2 100 100 N 7 11 29.88 1012 0.5 0.80467 0 0
12:46 am 00:46 Mostly Cloudy with Fog 45 7 45 7 100 100 NE 7 11 29.88 1012 1 1.60934 0 0
12:52 am 00:52 Mostly Cloudy with Fog 45 7.2 45 7.2 100 100 NE 8 13 29.88 1012 1 1.60934 0 0
12:55 am 00:55 Mostly Cloudy with Fog 45 7.2 45 7.2 100 100 NE 8 13 29.88 1012 1 1.60934 0 0
1:52 am 01:52 Mostly Cloudy with Fog 46 7.8 46 7.8 100 100 NNE 7 11 29.88 1012 1 1.60934 0 0
2:10 am 02:10 Mostly Cloudy with Fog 46 8 46 8 100 100 NE 7 11 29.88 1012 0.5 0.80467 0 0
2:13 am 02:13 Mostly Cloudy with Mist and Fog 46 7.8 46 7.8 100 100 NE 7 11 29.88 1012 0.75 1.207005 0 0
2:30 am 02:30 Cloudy with Mist and Fog 46 8 46 8 100 100 NE 5 7 29.88 1012 1.5 2.41401 0 0
2:41 am 02:41 Cloudy with Mist and Fog 46 7.8 46 7.8 100 100 NE 6 9 29.88 1012 2.5 4.02335 0 0
2:52 am 02:52 Cloudy with Mist and Fog 46 7.8 46 7.8 100 100 NE 5 7 29.88 1012 2.5 4.02335 0 0
2:55 am 02:55 Cloudy with Mist and Fog 46 7.8 46 7.8 100 100 NE 5 7 29.88 1012 3 4.82802 0 0
3:52 am 03:52 Cloudy with Mist and Fog 47 8.3 46 7.8 97 97 NNE 6 9 29.89 1012 4 6.43736 0 0
4:45 am 04:45 Cloudy with Mist and Fog 47 8.3 47 8.3 100 100 N 3 6 29.91 1013 4 6.43736 0 0
4:52 am 04:52 Cloudy with Mist and Fog 47 8.3 47 8.3 100 100 N 3 6 29.9 1012 4 6.43736 0 0
5:46 am 05:46 Cloudy with Mist and Fog 46 8 46 8 100 100 ENE 5 7 29.91 1013 3 4.82802 0 0
5:52 am 05:52 Cloudy with Mist and Fog 47 8.3 46 7.8 97 97 E 3 6 29.91 1013 3 4.82802 0 0
6:00 am 06:00 Cloudy with Mist and Fog 46 8 46 8 100 100 Calm 29.91 1013 2.5 4.02335 0 0
6:08 am 06:08 Cloudy with Mist and Fog 46 8 46 8 100 100 Calm 29.91 1013 2 3.21868 0 0
6:15 am 06:15 Cloudy with Mist and Fog 47 8.3 47 8.3 100 100 Calm 29.91 1013 1.75 2.816345 0 0
6:22 am 06:22 Partly Cloudy with Mist and Fog 46 8 46 8 100 100 SSE 5 7 29.91 1013 2.5 4.02335 0 0
6:31 am 06:31 Partly Cloudy with Mist and Fog 47 8.3 47 8.3 100 100 Calm 29.91 1013 3 4.82802 0 0
6:39 am 06:39 Partly Cloudy with Mist and Fog 44 6.7 44 6.7 100 100 SSE 3 6 29.91 1013 2 3.21868 0 0
6:42 am 06:42 Mostly Cloudy with Mist and Fog 44 6.7 44 6.7 100 100 SSE 3 6 29.91 1013 1 1.60934 0 0
6:45 am 06:45 Mostly Cloudy with Fog 45 7.2 45 7.2 100 100 SE 3 6 29.91 1013 0.25 0.402335 0 0
6:47 am 06:47 Mostly Cloudy with Fog 45 7 45 7 100 100 SE 3 6 29.91 1013 0.25 0.402335 0 0
6:49 am 06:49 Mostly Cloudy with Fog 45 7 45 7 100 100 ESE 3 6 29.91 1013 1 1.60934 0 0
6:52 am 06:52 Mostly Cloudy with Fog 46 7.8 46 7.8 100 100 Calm 29.91 1013 1 1.60934 0 0
7:18 am 07:18 Mostly Cloudy with Fog 46 8 46 8 100 100 Calm 29.91 1013 0.25 0.402335 0 0
7:21 am 07:21 Partly Cloudy with Fog 46 8 46 8 100 100 Calm 29.91 1013 0.5 0.80467 0 0
7:25 am 07:25 Partly Cloudy with Mist and Fog 47 8.3 47 8.3 100 100 WNW 3 6 29.91 1013 3 4.82802 0 0
7:52 am 07:52 Mostly Cloudy with Mist and Fog 46 7.8 46 7.8 100 100 NNE 5 7 29.91 1013 5 8.0467 0 0
8:52 am 08:52 Mostly Cloudy 52 11.1 45 7.2 77 77 NW 15 24 29.93 1014 10 16.0934 0 0
9:52 am 09:52 Mostly Cloudy 53 11.7 45 7.2 74 74 NNW 13 20 29.96 1015 10 16.0934 0 0
10:52 am 10:52 Partly Cloudy 57 13.9 44 6.7 62 62 WNW 13 20 29.95 1014 10 16.0934 0 0
11:52 am 11:52 Mostly Cloudy 59 15 43 6.1 56 56 NW 18 30 29.94 1014 10 16.0934 0 0
12:52 pm 12:52 Mostly Cloudy 60 15.6 41 5 50 50 NNW 17 28 29.94 1014 10 16.0934 0 0
1:52 pm 13:52 Mostly Cloudy 58 14.4 40 4.4 51 51 NW 18 30 29.95 1014 10 16.0934 0 0
2:52 pm 14:52 Mostly Cloudy 59 15 40 4.4 49 49 NNW 17 28 29.96 1015 10 16.0934 0 0
3:52 pm 15:52 Mostly Cloudy 57 13.9 38 3.3 49 49 WNW 14 22 29.98 1015 10 16.0934 0 0
4:52 pm 16:52 Partly Cloudy 56 13.3 37 2.8 49 49 NNW 15 24 30.01 1016 10 16.0934 0 0
5:52 pm 17:52 Partly Cloudy 52 11.1 37 2.8 57 57 NNW 15 24 30.05 1018 10 16.0934 0 0
6:52 pm 18:52 Mostly Clear 50 10 36 2.2 59 59 NW 15 24 30.06 1018 10 16.0934 0 0
7:52 pm 19:52 Partly Cloudy 49 9.4 36 2.2 61 61 NW 13 20 30.08 1019 10 16.0934 0 0
8:52 pm 20:52 Mostly Cloudy 49 9.4 36 2.2 61 61 NNW 15 24 30.09 1019 10 16.0934 0 0
9:52 pm 21:52 Mostly Cloudy 48 8.9 36 2.2 63 63 NW 14 22 30.08 1019 10 16.0934 0 0
10:52 pm 22:52 Cloudy 48 8.9 36 2.2 63 63 NNW 12 19 30.07 1018 10 16.0934 0 0
11:52 pm 23:52 Mostly Cloudy 48 8.9 36 2.2 63 63 NW 9 15 30.09 1019 10 16.0934 0 0

Powered by AerisWeather